Terug naar catalogus

VANGUARD R/B

ActiefUNKNOWN
NORAD 12·ROCKET BODY·🇺🇸 United States

Gelanceerd Feb 17, 1959 vanaf Cape Canaveral Space Force Station

Loading…

Volgende Passages (komende 24 uur)

TLE

VersSource: Space-Track

Epoch: Sep 14, 2026, 10:50 UTC

1 00012U 59001B   26257.45156621  .00000312  00000-0  16291-3 0  9998
2 00012  32.9045 270.5450 1644965 218.0136 129.2335 11.48646815541590

Volg VANGUARD R/B in realtime met AllMySat

Download on the App Store